El Paso, TX

7:38 AM MST on February 22, 2017 (GMT -0700)
El Paso International

Weather History for KELP - December, 2013

Change the Weather History Date:

Tuesday, December 17, 2013

  Actual Average Record
Temperature  
Mean Temperature 48 °F 44 °F  
Max Temperature 65 °F 57 °F 73 °F (1980)
Min Temperature 30 °F 32 °F 15 °F (1985)
Degree Days  
Heating Degree Days 17 21  
Month to date heating degree days 318 331  
Since 1 July heating degree days 702 773  
Cooling Degree Days 0 0  
Month to date cooling degree days 0 0  
Year to date cooling degree days 2695 2331  
Moisture  
Dew Point 22 °F    
Average Humidity 41    
Maximum Humidity 63    
Minimum Humidity 19    
Precipitation  
Precipitation 0.00 in 0.03 in 0.50 in (1986)
Month to date precipitation 0.23 0.45  
Year to date precipitation 9.48 9.38  
Snow  
Snow 0.00 in - - ()
Month to date snowfall T  
Since 1 July snowfall T  
Snow Depth 0.00 in    
Sea Level Pressure  
Sea Level Pressure 30.23 in    
Wind  
Wind Speed 2 mph (ENE)    
Max Wind Speed 12 mph    
Max Gust Speed 13 mph    
Visibility 10 miles    
Events      
T = Trace of Precipitation, MM = Missing Value Source: NWS Daily Summary

Daily Weather History Graph

Daily Weather History Graph

Search for Another Location

Airport or City:

Trip Planner

Search our weather history database for the weather conditions in past years. The results will help you decide how hot, cold, wet, or windy it might be!

Date:

Astronomy

Dec. 17, 2013 Rise Set
Actual Time 6:59 AM MST 5:04 PM MST
Civil Twilight 6:32 AM MST 5:31 PM MST
Nautical Twilight 6:02 AM MST 6:01 PM MST
Astronomical Twilight 5:32 AM MST 6:31 PM MST
Moon 5:42 PM MST (12/17) 7:01 AM MST (12/17)
Length of Visible Light 10h 58m
Length of Day
10h 04m
Full, 100% of the Moon is Illuminated
Dec 17
Full
Dec 25
Last Quarter
Jan 1
New
Jan 7
First Quarter
Jan 15
Full

Hourly Weather History & Observations

Time (MST) Temp. Windchill Dew Point Humidity Pressure Visibility Wind Dir Wind Speed Gust Speed Precip Events Conditions
12:51 AM 36.0 °F - 21.9 °F 57% 30.24 in 10.0 mi Calm Calm - N/A   Mostly Cloudy
1:51 AM 37.0 °F 32.4 °F 23.0 °F 57% 30.24 in 10.0 mi NE 5.8 mph - N/A   Mostly Cloudy
2:51 AM 36.0 °F 32.1 °F 21.0 °F 55% 30.23 in 10.0 mi NNE 4.6 mph - N/A   Mostly Cloudy
3:51 AM 34.0 °F 31.0 °F 21.0 °F 59% 30.23 in 10.0 mi ENE 3.5 mph - N/A   Mostly Cloudy
4:51 AM 35.1 °F 32.2 °F 21.0 °F 57% 30.23 in 10.0 mi North 3.5 mph - N/A   Partly Cloudy
5:51 AM 34.0 °F - 21.9 °F 61% 30.25 in 10.0 mi Calm Calm - N/A   Partly Cloudy
6:51 AM 32.0 °F 28.7 °F 21.0 °F 64% 30.29 in 10.0 mi SSE 3.5 mph - N/A   Partly Cloudy
7:51 AM 39.0 °F - 23.0 °F 53% 30.29 in 10.0 mi Calm Calm - N/A   Scattered Clouds
8:51 AM 46.0 °F - 24.1 °F 42% 30.29 in 10.0 mi Calm Calm - N/A   Scattered Clouds
9:51 AM 51.1 °F - 24.1 °F 35% 30.32 in 10.0 mi Calm Calm - N/A   Mostly Cloudy
10:51 AM 54.0 °F - 24.1 °F 31% 30.30 in 10.0 mi Calm Calm - N/A   Scattered Clouds
11:51 AM 57.9 °F - 23.0 °F 26% 30.26 in 10.0 mi Calm Calm - N/A   Partly Cloudy
12:51 PM 60.1 °F - 23.0 °F 24% 30.22 in 10.0 mi Calm Calm - N/A   Partly Cloudy
1:51 PM 63.0 °F - 23.0 °F 22% 30.19 in 10.0 mi South 3.5 mph - N/A   Partly Cloudy
2:51 PM 64.0 °F - 21.0 °F 19% 30.17 in 10.0 mi Calm Calm - N/A   Scattered Clouds
3:51 PM 64.0 °F - 21.0 °F 19% 30.18 in 10.0 mi Calm Calm - N/A   Scattered Clouds
4:51 PM 62.1 °F - 21.9 °F 21% 30.17 in 10.0 mi Calm Calm - N/A   Scattered Clouds
5:51 PM 55.0 °F - 21.0 °F 27% 30.20 in 10.0 mi South 3.5 mph - N/A   Scattered Clouds
6:51 PM 53.1 °F - 23.0 °F 31% 30.22 in 10.0 mi North 4.6 mph - N/A   Scattered Clouds
7:51 PM 48.9 °F - 23.0 °F 36% 30.22 in 10.0 mi NE 4.6 mph - N/A   Scattered Clouds
8:51 PM 46.9 °F - 21.9 °F 37% 30.21 in 10.0 mi Calm Calm - N/A   Partly Cloudy
9:51 PM 46.0 °F - 21.0 °F 37% 30.19 in 10.0 mi Calm Calm - N/A   Clear
10:51 PM 41.0 °F - 21.0 °F 45% 30.19 in 10.0 mi Calm Calm - N/A   Clear
11:51 PM 42.1 °F - 21.9 °F 45% 30.18 in 10.0 mi Calm Calm - N/A   Clear